Simultaneous Nadir Overpasses (SNOs) Predictions

Prediction of SNOs between AQUA and NOAA-19 Satellite Orbit:

Table of predicted SNOs for the next 14.0 days since TLE Epoch: 1/2/2021
Index Date (AQUA) Time (AQUA) Lat,Lon (AQUA) SZA (AQUA ) Date (NOAA-19) Time (NOAA-19) Lat,Lon (NOAA-19) SZA (NOAA-19 ) Distance(km) Time Diff (sec)
1 01/03/2021 09:03:20 79.23, 19.01 103.01 01/03/2021 09:02:08 79.24, 19.03 103.03 0.63 72
2 01/03/2021 09:52:47 -79.27,-173.59 76.95 01/03/2021 09:53:05 -79.24,-173.66 76.98 3.50 18
3 01/05/2021 15:26:30 79.26, -76.94 102.81 01/05/2021 15:26:20 79.26, -76.76 102.80 3.73 10
4 01/05/2021 16:16:04 -79.56, 88.69 76.77 01/05/2021 16:17:07 -79.54, 93.23 77.14 91.53 63
5 01/07/2021 21:00:13 -79.24, 19.76 77.48 01/07/2021 20:59:30 -79.24, 19.92 77.47 3.43 43
6 01/07/2021 21:49:40 79.25,-172.66 102.53 01/07/2021 21:50:34 79.24,-172.84 102.53 3.68 54
7 01/10/2021 02:33:56 79.20, 116.55 102.18 01/10/2021 02:32:48 79.22, 116.45 102.22 2.69 68
8 01/10/2021 03:23:23 -79.22, -75.96 77.80 01/10/2021 03:23:43 -79.25, -75.98 77.78 2.82 20
9 01/12/2021 08:57:07 79.24, 20.54 101.89 01/12/2021 08:57:01 79.23, 20.61 101.88 1.76 6
10 01/14/2021 14:30:50 -79.22, 117.24 78.52 01/14/2021 14:30:10 -79.22, 117.32 78.50 1.83 40



Historial Predications of SNOs between AQUA and NOAA-19
